When you browse on this site, cookies collect data to enhance your experience and personalize the content and advertising you see.
Visit our Privacy Policy to learn more. By continuing to use the site, you agree to this use of cookies and data.
  • In Romania
  • List of Countries
  • For 7 days
  • Water Temperature
  • Satellite Maps
  • Weather Map
  • Weather Widgets
  • user-avatar
    Login

    Hourly Weather Dalat

    Today, 24 February, Sunday

    Time Temperature Precipitation Wind Pressure Humidity
    00:00 +16°C° 0 mm 1 mps 653 mmHg 83%
    01:00 +16°C° 0 mm 1 mps 652 mmHg 84%
    02:00 +16°C° 0 mm 1 mps 652 mmHg 81%
    03:00 +15°C° 0 mm 1 mps 652 mmHg 78%
    04:00 +15°C° 0 mm 1 mps 652 mmHg 75%
    05:00 +16°C° 0 mm 1 mps 652 mmHg 68%
    06:00 +18°C° 0 mm 1 mps 653 mmHg 62%
    07:00 +19°C° 0 mm 1 mps 653 mmHg 56%
    08:00 +22°C° 0 mm 1 mps 655 mmHg 45%
    09:00 +25°C° 0 mm 1 mps 656 mmHg 35%
    10:00 +29°C° 0 mm 2 mps 657 mmHg 24%
    11:00 +29°C° 0 mm 2 mps 657 mmHg 24%
    12:00 +30°C° 0 mm 2 mps 656 mmHg 24%
    13:00 +31°C° 0 mm 2 mps 656 mmHg 23%
    14:00 +30°C° 0 mm 2 mps 655 mmHg 27%
    15:00 +29°C° 0 mm 2 mps 655 mmHg 31%
    16:00 +28°C° 0 mm 2 mps 654 mmHg 34%
    17:00 +25°C° 0 mm 2 mps 653 mmHg 48%
    18:00 +22°C° 0 mm 1 mps 652 mmHg 61%
    19:00 +19°C° 0 mm 1 mps 652 mmHg 75%
    20:00 +18°C° 0 mm 1 mps 652 mmHg 77%
    21:00 +16°C° 0 mm 1 mps 652 mmHg 80%
    22:00 +16°C° 0 mm 1 mps 653 mmHg 83%
    23:00 +15°C° 0 mm 1 mps 652 mmHg 79%

    Tomorrow, 25 February, Monday

    Time Temperature Precipitation Wind Pressure Humidity
    00:00 +15°C° 0 mm 1 mps 652 mmHg 75%
    01:00 +15°C° 0 mm 1 mps 652 mmHg 71%
    02:00 +15°C° 0 mm 1 mps 652 mmHg 70%
    03:00 +15°C° 0 mm 1 mps 652 mmHg 68%
    04:00 +15°C° 0 mm 1 mps 651 mmHg 67%
    05:00 +15°C° 0 mm 1 mps 652 mmHg 65%
    06:00 +16°C° 0 mm 1 mps 653 mmHg 63%
    07:00 +18°C° 0 mm 1 mps 653 mmHg 62%
    08:00 +21°C° 0 mm 1 mps 655 mmHg 52%
    09:00 +24°C° 0 mm 2 mps 656 mmHg 42%
    10:00 +28°C° 0 mm 2 mps 657 mmHg 32%
    11:00 +29°C° 0 mm 2 mps 657 mmHg 29%
    12:00 +30°C° 0 mm 2 mps 657 mmHg 27%
    13:00 +31°C° 0 mm 2 mps 656 mmHg 24%
    14:00 +30°C° 0 mm 2 mps 655 mmHg 27%
    15:00 +29°C° 0 mm 2 mps 655 mmHg 30%
    16:00 +28°C° 0 mm 2 mps 654 mmHg 33%
    17:00 +25°C° 0 mm 2 mps 653 mmHg 48%
    18:00 +21°C° 0 mm 2 mps 653 mmHg 62%
    19:00 +19°C° 0 mm 1 mps 652 mmHg 77%
    20:00 +18°C° 0 mm 1 mps 652 mmHg 80%
    21:00 +16°C° 0 mm 1 mps 652 mmHg 83%
    22:00 +15°C° 0 mm 1 mps 653 mmHg 86%
    23:00 +15°C° 0 mm 1 mps 652 mmHg 82%

    Day after tomorrow, 26 February, Tuesday

    Time Temperature Precipitation Wind Pressure Humidity
    00:00 +14°C° 0 mm 1 mps 652 mmHg 78%
    01:00 +14°C° 0 mm 1 mps 652 mmHg 74%
    02:00 +14°C° 0 mm 1 mps 651 mmHg 75%
    03:00 +14°C° 0 mm 1 mps 651 mmHg 76%
    04:00 +14°C° 0 mm 1 mps 651 mmHg 77%
    05:00 +15°C° 0 mm 1 mps 651 mmHg 75%
    06:00 +15°C° 0 mm 1 mps 652 mmHg 73%
    07:00 +16°C° 0 mm 1 mps 653 mmHg 71%
    08:00 +19°C° 0 mm 2 mps 654 mmHg 59%
    09:00 +24°C° 0 mm 2 mps 656 mmHg 46%
    10:00 +27°C° 0 mm 2 mps 657 mmHg 34%
    11:00 +28°C° 0 mm 2 mps 657 mmHg 32%
    12:00 +29°C° 0 mm 2 mps 656 mmHg 29%
    13:00 +30°C° 0 mm 3 mps 656 mmHg 27%
    14:00 +29°C° 0 mm 3 mps 655 mmHg 30%
    15:00 +29°C° 0 mm 3 mps 654 mmHg 33%
    16:00 +28°C° 0 mm 2 mps 654 mmHg 36%
    17:00 +25°C° 0 mm 2 mps 653 mmHg 49%
    18:00 +21°C° 0 mm 2 mps 653 mmHg 62%
    19:00 +19°C° 0 mm 1 mps 652 mmHg 76%
    20:00 +18°C° 0 mm 1 mps 652 mmHg 79%
    21:00 +16°C° 0 mm 1 mps 652 mmHg 82%
    22:00 +15°C° 0 mm 1 mps 653 mmHg 85%
    23:00 +15°C° 0 mm 1 mps 652 mmHg 80%

    27 February, Wednesday

    Time Temperature Precipitation Wind Pressure Humidity
    00:00 +15°C° 0 mm 1 mps 652 mmHg 76%
    01:00 +14°C° 0 mm 1 mps 651 mmHg 71%
    02:00 +14°C° 0 mm 1 mps 651 mmHg 69%
    03:00 +14°C° 0 mm 1 mps 651 mmHg 67%
    04:00 +14°C° 0 mm 1 mps 650 mmHg 65%
    05:00 +14°C° 0 mm 1 mps 651 mmHg 65%
    06:00 +15°C° 0 mm 1 mps 652 mmHg 64%
    07:00 +16°C° 0 mm 1 mps 653 mmHg 64%
    08:00 +21°C° 0 mm 1 mps 654 mmHg 53%
    09:00 +24°C° 0 mm 2 mps 655 mmHg 42%
    10:00 +28°C° 0 mm 2 mps 657 mmHg 31%
    11:00 +29°C° 0 mm 2 mps 656 mmHg 29%
    12:00 +31°C° 0 mm 2 mps 656 mmHg 26%
    13:00 +32°C° 0 mm 2 mps 655 mmHg 24%
    14:00 +31°C° 0 mm 2 mps 655 mmHg 27%
    15:00 +30°C° 0 mm 2 mps 654 mmHg 30%
    16:00 +29°C° 0 mm 2 mps 653 mmHg 33%
    17:00 +26°C° 0 mm 2 mps 653 mmHg 46%
    18:00 +22°C° 0 mm 1 mps 652 mmHg 59%
    19:00 +19°C° 0 mm 1 mps 652 mmHg 73%
    20:00 +18°C° 0 mm 1 mps 652 mmHg 76%
    21:00 +16°C° 0 mm 1 mps 652 mmHg 80%
    22:00 +16°C° 0 mm 1 mps 652 mmHg 83%
    23:00 +15°C° 0 mm 1 mps 652 mmHg 75%

    28 February, Thursday

    Time Temperature Precipitation Wind Pressure Humidity
    00:00 +15°C° 0 mm 1 mps 651 mmHg 67%
    01:00 +15°C° 0 mm 1 mps 651 mmHg 58%
    02:00 +15°C° 0 mm 1 mps 651 mmHg 53%
    03:00 +14°C° 0 mm 1 mps 651 mmHg 48%
    04:00 +14°C° 0 mm 1 mps 650 mmHg 43%
    05:00 +15°C° 0 mm 1 mps 651 mmHg 45%
    06:00 +16°C° 0 mm 1 mps 652 mmHg 47%
    07:00 +18°C° 0 mm 1 mps 653 mmHg 49%
    08:00 +21°C° 0 mm 1 mps 654 mmHg 44%
    09:00 +25°C° 0 mm 1 mps 655 mmHg 40%
    10:00 +28°C° 0 mm 1 mps 657 mmHg 36%
    11:00 +30°C° 0 mm 1 mps 656 mmHg 34%
    12:00 +31°C° 0 mm 1 mps 656 mmHg 32%
    13:00 +32°C° 0 mm 2 mps 655 mmHg 30%
    14:00 +31°C° 0 mm 2 mps 654 mmHg 36%
    15:00 +29°C° 0 mm 2 mps 654 mmHg 42%
    16:00 +27°C° 0 mm 2 mps 653 mmHg 49%
    17:00 +25°C° 0 mm 2 mps 653 mmHg 62%
    18:00 +22°C° 0 mm 1 mps 652 mmHg 76%
    19:00 +20°C° 0 mm 1 mps 652 mmHg 90%
    20:00 +19°C° 0 mm 1 mps 652 mmHg 92%
    21:00 +19°C° 0 mm 1 mps 653 mmHg 94%
    22:00 +19°C° 0 mm 1 mps 653 mmHg 96%
    23:00 +18°C° 0 mm 1 mps 652 mmHg 96%

    1 March, Friday

    Time Temperature Precipitation Wind Pressure Humidity
    00:00 +16°C° 0 mm 1 mps 652 mmHg 97%
    01:00 +15°C° 0 mm 1 mps 652 mmHg 97%
    02:00 +15°C° 0 mm 1 mps 651 mmHg 94%
    03:00 +14°C° 0 mm 1 mps 651 mmHg 90%
    04:00 +14°C° 0 mm 1 mps 651 mmHg 86%
    05:00 +15°C° 0 mm 1 mps 652 mmHg 81%
    06:00 +16°C° 0 mm 1 mps 652 mmHg 75%
    07:00 +16°C° 0 mm 1 mps 653 mmHg 69%
    08:00 +21°C° 0 mm 1 mps 654 mmHg 57%
    09:00 +25°C° 0 mm 1 mps 656 mmHg 44%
    10:00 +29°C° 0 mm 1 mps 657 mmHg 31%
    11:00 +30°C° 0 mm 1 mps 656 mmHg 29%
    12:00 +31°C° 0 mm 1 mps 656 mmHg 26%
    13:00 +34°C° 0 mm 2 mps 655 mmHg 24%
    14:00 +32°C° 0 mm 2 mps 655 mmHg 27%
    15:00 +30°C° 0 mm 2 mps 654 mmHg 30%
    16:00 +29°C° 0 mm 2 mps 654 mmHg 34%
    17:00 +26°C° 0 mm 1 mps 653 mmHg 48%
    18:00 +22°C° 0 mm 1 mps 652 mmHg 62%
    19:00 +19°C° 0 mm 1 mps 652 mmHg 76%
    20:00 +18°C° 0 mm 1 mps 652 mmHg 80%
    21:00 +18°C° 0 mm 1 mps 652 mmHg 83%
    22:00 +16°C° 0 mm 1 mps 652 mmHg 87%
    23:00 +16°C° 0 mm 1 mps 652 mmHg 85%
    Show more